Погода в Лагани

Погода в Лагани : погода сейчас, прогноз погоды и архив. Всё, что Вы хотите узнать о погоде в Лагани!

Поиск расширенной информации на нашем сайте:

Другие новости

Новости СМИ2

Главная страница сайта

Новости сайта

03.07.2017

Напоминаем, что на нашем специализированном сайте Метеоцентр.Азия вы можете получить высокодетализированные автоматические прогнозы погоды по пунктам России, СНГ и мира в авиационном формате (включающие направление и скорость ветра, видимость, явления погоды, количество и форму облачности, нижнюю и верхнюю границу облачности).


Погода в Лагани - сегодня

Время (UTC), дата Ветер
(°,м/с) 
Видим.   Явления Облачность Т
(°С)
Тd
(°С)
f(%) Тe
(°С)
Pmin
(гПа)
dP
(гПа)
Po
(мм)
O2
(г/м3)
Тmin Tmax R s Состояние
почвы
00 18.08.17 040 (СВ) 10 км    ясно 
+20.1 +17.8 87 +33  1014.7  -0.7  763  282           
03 18.08.17 030 (СВ) 10 км    8/0 средняя, верхняя 
[Ac cast|Ci sp]
+21.6 +18.4 82 +36  1014.7  763  281  +20.1        сухая 
06 18.08.17 070 (В) 5-10{11}  20000 м    8/0 верхняя 
[Ci sp]
+27.6 +17.5 54 +40  1015.4  0.6  763  276           
09 18.08.17 080 (В) 6-10{11}  20000 м    9/0 средняя, верхняя 
[Ac cuf|Ci sp]
+29 +13.3 38 +34  1016.1  0.8  764  276           
12 18.08.17 070 (В) 6{11}  20000 м    10/5 1000 м кучево-дожд., средняя 
[Cb cap|Ac As]
+27.1 +16.2 51 +37  1016.9  0.7  765  277           
15 18.08.17 070 (В) 20000 м    9/3 600 м средняя 
[Sc diur, vesp|Ac As]
+25.7 +17 59 +37  1017.3  0.4  765  278    +29.6       
18 18.08.17 тихо ()   20000 м    ясно 
+22.7 +17.8 74 +36  1018.1  0.8  765  281           
21 18.08.17 360 (С) 20000 м    10/0 средняя 
[Ac As]
+21.7 +16.6 73 +33  1017.7  -0.3  765  282           
00 19.08.17 010 (С) 20000 м    10/0 средняя 
[Ac As]
+20.6 +16.3 76 +31  1017.3  -0.4  765  283           
03 19.08.17 050 (СВ) 20000 м    5/0 средняя 
[Ac trans]
+20.8 +13.1 61 +26  1017.8  0.5  765  284  +19.4        сухая 
06 19.08.17 080 (В) 20000 м    4/0 средняя, верхняя 
[Ac trans|Ci fib]
+28 +15.8 47 +38  1018.5  0.6  766  277           
09 19.08.17 080 (В) 20000 м    3/0 верхняя 
[Ci sp]
+31.1 +15.6 39 +40  1018.2  -0.3  766  274           
12 19.08.17 080 (В) 20000 м    3/0 средняя 
[Ac trans]
+31.7 +7.4 22 +32  1018  -0.2  765  275           
15 19.08.17 070 (В) 20000 м    8/3 1000 м кучево-дожд., средняя 
[Cb cap|Ac trans]
+29.2 +14.4 40 +36  1018.2  0.2  766  276    +31.8       
18 19.08.17 070 (В) 20000 м    ясно 
+24.2 +18.8 72 +39  1018.6  0.5  766  279           
21 19.08.17 040 (СВ) 20000 м    8/0 средняя 
[Ac trans]
+24.1 +19.5 76 +41  1018.1  -0.5  766  279           
00 20.08.17 060 (СВ) 20000 м    10/0 средняя 
[Ac As]
+24.6 +19.1 71 +41  1017.3  -0.9  765  278           
03 20.08.17 070 (В) 20000 м  в посл. час ливневой дождь  10/8 600 м кучево-дожд., средняя 
[Cb cap|Ac und]
+24.5 +20.8 80 +44  1018  0.6  765  278  +23.3    0.0     
06 20.08.17 080 (В) 6{12}  20000 м  в посл. час ливневой дождь  9/6 600 м кучево-дожд., средняя 
[Cb cap|Ac cuf]
+27.1 +12.8 41 +32  1018.3  0.4  766  278           
09 20.08.17 090 (В) 9-14{16}  10 км  пыльный позёмок  8/4 1000 м кучево-дожд., средняя 
[Cb calv|Ac cuf]
+30.2 +14 37 +37  1018.4  766  275           
12 20.08.17 080 (В) 7-13{16}  4000 м  пыльная буря  6/3 1000 м кучево-дожд., средняя, верхняя 
[Cb calv|Ac cuf|Ci sp]
+30.6 +12.2 32 +34  1018.4  766  275           
15 20.08.17 060 (СВ) 10 км  пыльный позёмок  9/4 1000 м кучево-дожд., средняя, верхняя 
[Cb cap|Ac cuf|Ci sp]
+26.7 +15.5 50 +36  1017.8  -0.6  765  278    +30.7  0.0     
18 20.08.17 050 (СВ) 4{10}  20000 м    6/3 600 м кучево-дожд., средняя 
[Cb cap|Ac cuf]
+24.2 +16.4 62 +35  1018.3  0.5  766  280           
21 20.08.17 070 (В) 20000 м  зарница  9/4 600 м кучево-дожд., средняя 
[Cb cap|Ac cuf]
+23.4 +14.5 57 +31  1017.5  -0.7  765  281           
00 21.08.17 050 (СВ) 4{12}  20000 м  зарница{ливн. осадки}  8/4 600 м кучево-дожд., средняя 
[Cb cap|Ac cuf]
+24 +12.4 48 +28  1016  -1.6  764  281           
Время (UTC), дата Ветер
(°,м/с) 
Видим.   Явления Облачность Т
(°С)
Тd
(°С)
f(%) Тe
(°С)
Pmin
(гПа)
dP
(гПа)
Po
(мм)
O2
(г/м3)
Тmin Tmax R s Состояние
почвы

Для получения пояснительной информации подведите курсор к названию столбца.

ПОГОДА в Лагани - архив

Всё, что Вы хотите узнать о погоде в Лагани - удобно и подробно!

Выберите нужную дату (начиная с 1 января 2015* года) и нажмите кнопку "Найти".
Будут отображены архивные сводки погоды по пункту Лагань, начиная с указанной даты.


Отображать данные в формате CSV (для использования в таблицах Excel)


Внимание! Наш архив погоды предназначен исключительно для личного некоммерческого использования в познавательных целях. Если Вам необходимы официальные справки о состоянии погоды (для производственных, юридических, коммерческих и т.п. целей), обращайтесь в органы Росгидромета.

*Примечание: данная дата относится к архиву по метеостанциям СССР (Россия, СНГ, Балтия).
Архив по метеостанциям Зарубежной Европы и Азии (кроме Китая) хранится 10 дней, по другим регионам земного шара (Китай, Африка, Америка, Австралия, Океания) - 1 день.

Лагань - район местоположения метеостанции


Название, широта, долгота, высота метеостанции:
Лагань 45.4°ш. 47.3°д. -24 м над ур. моря [Российская Федерация]

Дополнительная информация

В oтличие oт бoльшинства пoгoдных сайтoв мы публикуем пoдрoбную метеoинфoрмацию в детальнoм прoфессиoнальнoм фoрмате.

Характеристики температуры и влажнoсти вoздуха измеряются на высoте 2 м в тени вдали oт зданий и деревьев.
Скoрoсть ветра измеряется на высoте 10 м (на урoвне рoста челoвека скoрoсть ветра ниже в 1.5-2 раза). Если метеoстанция нахoдится в гoрoде или в лесу, тo скoрoсть ветра занижена на 2-4 м/с пo сравнению с oткрытым местoм. Скoрoсть ветра над акватoриями крупных рек и oзёр, а также на вершинах хoлмoв на 2-5 м/с выше, чем в oбычных услoвиях.
Атмoсфернoе давление в разных тoчках местнoсти мoжет значительнo oтличаться oт давления на метеoстанции, в зависимoсти oт услoвий рельефа (при пoдъёме на 10 м давление пoнижается примернo на 1 мм рт.ст.).